星链-4533 (STARLINK-4533 )

导读 | 豆包AI

STARLINK-4533是美国太空探索技术公司(SpaceX)星链(Starlink)互联网星座中的一颗卫星,于2022年8月10日发射入轨。星链星座旨在为全球提供高速低延迟互联网服务,该卫星作为星链组网的组成部分,承担着卫星互联网节点功能,服务全球用户的网络接入需求。

Basic Information
目录编号:
53406
目录名称:
STARLINK-4533
国际标识:
2022-097U
轨道中心:
EARTH
卫星名称:
星链-4533
卫星全名:
星链-4533 (STARLINK-4533 )
卫星状态:
在轨 (已飞行1313 天)
发射日期:
2022-08-10 UTC
国别 :
美国 (US)
星等 :
--
Orbit Information
数据来源 国际轨道数据 AOE轨道数据
星历时间 2026-03-15T01:40:36+0800
14小时前
查看轨道信息
2026-03-12T08:00:00+0800
3天前
查看轨道信息
半长轴 6917.893km 6917.892km
偏心率 0.0002065 0.0002723
轨道倾角 53.216° 53.218°
近地点辐角 90.712° 76.353°
升交点赤经 91.463° 103.750°
平近点角 269.411° 171.367°
近地点 538.327km 537.871km
远地点 541.185km 541.639km
周期 95.438分钟 95.438分钟
每日圈数 15.088362 15.088364
Detailed Information
固有亮度:
5
最大亮度:
2.5
卫星平台:
Starlink v1.5
覆盖范围:
全球
运营商:
太空探索技术公司
运营商所在国:
美国
制造商(研发单位):
太空探索技术公司
制造商所在国:
美国
使用方式:
暂无
Satellite Introduction
星链(Starlink)计划是由太空探索技术公司(SpaceX)提出的一个巨型低轨卫星互联网星座项目,计划在2019年至2024年间在太空搭建由约1.2万颗卫星组成的“星链”网络,其中1584颗将部署在地球上空550千米处的近地轨道,并从2020年开始工作。该卫星仍在工作。
2D Orbit Map
3D Orbit Map
Orbit Altitude Analysis Chart
Orbit Inclination Analysis Chart
Orbit Comprehensive Analysis Chart
View Comprehensive Chart